Weather in Zeewolde

Netherlands     52°19′41″N   5°32′10″E
temp.,
°C
wind,
m/s
gust,
m/s
humid.,
%
clouds,
%
prec.,
mm/h
press.,
hPa
HPBL,
m
15 april, thu
thu1523:00+2nne3691100 0.0 1031115
02:00+1n1294100 0.3 103113
05:00+1wsw019434 0.3 103010
08:00+2ne239326 0.3 1031114
11:00+6ene346641 0.0 10321040
14:00+10ene3543100 0.0 10312085
17:00+10nne5550100 0.1 10301618
20:00+6n3671100 0.4 1030135
16 april, fri
fri1623:00+3ne487581 0.0 1031193
02:00+1ne36805 0.0 1031118
05:00+1nne358456 0.0 103083
08:00+2nne26845 0.0 1030153
11:00+8nne46575 0.0 10301158
14:00+11nne454380 0.0 10291796
17:00+11n665498 0.0 10271450
20:00+8nne6106120 0.1 1028584
17 april, sat
sat1723:00+3nne497810 0.0 1029214
02:00+2nne378623 0.0 1028128
05:00+1nne34905 0.0 102868
08:00+4nne25835 0.0 1028142
11:00+10nne46520 0.0 10271019
14:00+12nne55465 0.0 10261648
17:00+11n675897 0.0 1025994
20:00+9n47725 0.0 1025221
18 april, sun
sun1823:00+7nne3673100 0.0 1026235
02:00+6ne2374100 0.0 1025111
05:00+6nne2279100 0.0 102543
08:00+7ene1280100 0.0 1025102
11:00+9e1172100 0.0 1026503
14:00+12e0161100 0.0 1025963
17:00+12n226196 0.1 1024890
20:00+9n3579100 0.3 1024194
19 april, mon
mon1923:00+8n248798 0.0 1025110
02:00+8nne2288100 0.0 102460
05:00+8ene2287100 0.0 102444
08:00+8ene2486100 0.0 1023154
11:00+12ene23625 0.0 1023899
14:00+13ne3360100 0.4 10211112
17:00+13n3265100 0.6 1020950
20:00+11n237990 1.0 102065